{"data":{"norad_id":52275,"intl_designator":"2022-041Q","name":"STARLINK-3784","alt_names":[],"object_type":"PAYLOAD","status":"ACTIVE","operator":null,"country":"US","launch_date":"2022-04-21","launch_site_code":"AFETR","launch_vehicle":null,"mission":null,"orbit_class":"UNKNOWN","rcs_meters":null,"size_class":null,"mass_kg":null,"dimensions":null,"purposes":["comms"],"wikipedia_slug":null,"has_3d_model":false,"image_url":null,"decayed_at":null,"tle_current":{"epoch":"2026-05-25T02:57:53.000640Z","epoch_age_seconds":63758,"freshness":"FRESH","line1":"1 52275U 22041Q   26145.12353010 -.00000014  00000+0  17177-4 0  9995","line2":"2 52275  53.2127 125.9962 0001175  73.6543 286.4578 15.08834272225907","mean_motion":15.08834272,"eccentricity":0.0001175,"inclination_deg":53.2127,"raan_deg":125.9962,"arg_perigee_deg":73.6543,"mean_anomaly_deg":286.4578,"bstar":1.7177e-5,"rev_number":22590,"period_min":95.437916988142,"perigee_km":538.94804422105,"apogee_km":540.57375022689,"semimajor_km":6917.897897224,"source":"CELESTRAK","updated_at":"2026-05-25T13:38:17.082777Z"}}}